| time (UTC) | temp F | wind direction | speed MPH | gust MPH | rain 1hr in | rain 24hr in | rain mn in | humidity % | barometer mb |
| 20260901081331 | 73 | 194 | 5.0 | 6.0 | 0.00 | 0.59 | 0.00 | 71 | 1025.7 |
| 20260901080341 | 73 | 192 | 5.0 | 7.0 | 0.00 | 0.59 | 0.00 | 69 | 1025.7 |
| 20260901075332 | 73 | 178 | 5.0 | 7.0 | 0.00 | 0.59 | 0.00 | 72 | 1025.7 |
| 20260901074350 | 74 | 51 | 3.0 | 4.0 | 0.00 | 0.59 | 0.00 | 70 | 1025.8 |
| 20260901073343 | 74 | 51 | 1.0 | 2.0 | 0.00 | 0.59 | 0.00 | 70 | 1025.8 |
| 20260901072338 | 74 | 51 | 1.0 | 3.0 | 0.00 | 0.59 | 0.00 | 71 | 1025.8 |
| 20260901071329 | 74 | 51 | 2.0 | 4.0 | 0.00 | 0.59 | 0.00 | 71 | 1025.8 |
| 20260901070357 | 74 | 51 | 3.0 | 4.0 | 0.00 | 0.59 | 0.00 | 72 | 1025.8 |
| 20260901065349 | 74 | 51 | 2.0 | 3.0 | 0.00 | 0.59 | 0.59 | 71 | 1025.8 |
| 20260901064340 | 74 | 51 | 2.0 | 3.0 | 0.00 | 0.59 | 0.59 | 73 | 1025.8 |
| 20260901063331 | 74 | 51 | 2.0 | 4.0 | 0.00 | 0.59 | 0.59 | 72 | 1026.0 |
| 20260901062326 | 74 | 51 | 3.0 | 4.0 | 0.00 | 0.59 | 0.59 | 71 | 1026.1 |
| 20260901061326 | 74 | 51 | 2.0 | 3.0 | 0.00 | 0.59 | 0.59 | 70 | 1026.1 |
| 20260901060336 | 74 | 51 | 2.0 | 3.0 | 0.00 | 0.59 | 0.59 | 69 | 1025.9 |
| 20260901055325 | 75 | 51 | 2.0 | 4.0 | 0.00 | 0.59 | 0.59 | 68 | 1025.9 |
| 20260901054347 | 74 | 51 | 2.0 | 3.0 | 0.00 | 0.59 | 0.59 | 70 | 1025.9 |
| 20260901053344 | 74 | 51 | 3.0 | 4.0 | 0.00 | 0.59 | 0.59 | 72 | 1025.8 |
| 20260901052337 | 73 | 51 | 3.0 | 4.0 | 0.00 | 0.59 | 0.59 | 78 | 1025.9 |
| 20260901051329 | 73 | 51 | 3.0 | 4.0 | 0.00 | 0.59 | 0.59 | 78 | 1025.9 |
| 20260901050405 | 74 | 51 | 4.0 | 5.0 | 0.00 | 0.59 | 0.59 | 76 | 1025.9 |
| 20260901045335 | 74 | 46 | 3.0 | 5.0 | 0.00 | 0.59 | 0.59 | 76 | 1026.0 |
| 20260901044335 | 74 | 72 | 2.0 | 5.0 | 0.00 | 0.59 | 0.59 | 76 | 1025.9 |
| 20260901043325 | 74 | 211 | 3.0 | 6.0 | 0.00 | 0.59 | 0.59 | 76 | 1025.9 |
| 20260901042342 | 75 | 192 | 4.0 | 5.0 | 0.00 | 0.59 | 0.59 | 73 | 1025.9 |
| 20260901041339 | 75 | 136 | 3.0 | 4.0 | 0.00 | 0.59 | 0.59 | 71 | 1026.2 |
| 20260901040345 | 75 | 136 | 2.0 | 5.0 | 0.00 | 0.59 | 0.59 | 72 | 1026.0 |
| 20260901035336 | 75 | 105 | 4.0 | 6.0 | 0.00 | 0.59 | 0.59 | 73 | 1025.8 |
| 20260901034333 | 75 | 105 | 3.0 | 4.0 | 0.00 | 0.59 | 0.59 | 72 | 1026.0 |
| 20260901033411 | 75 | 105 | 4.0 | 9.0 | 0.00 | 0.59 | 0.59 | 71 | 1025.7 |
| 20260901032338 | 76 | 144 | 4.0 | 9.0 | 0.00 | 0.59 | 0.59 | 68 | 1025.7 |
| 20260901031329 | 77 | 137 | 8.0 | 12.0 | 0.00 | 0.59 | 0.59 | 65 | 1025.4 |
| 20260901030336 | 76 | 186 | 7.0 | 10.0 | 0.00 | 0.59 | 0.59 | 65 | 1025.2 |
| 20260901025355 | 76 | 182 | 6.0 | 9.0 | 0.00 | 0.59 | 0.59 | 66 | 1025.3 |
| 20260901024327 | 75 | 169 | 4.0 | 5.0 | 0.00 | 0.59 | 0.59 | 71 | 1025.1 |
| 20260901023343 | 75 | 96 | 2.0 | 4.0 | 0.00 | 0.59 | 0.59 | 74 | 1025.1 |
| 20260901022358 | 75 | 96 | 2.0 | 4.0 | 0.00 | 0.59 | 0.59 | 75 | 1025.1 |
| 20260901021331 | 76 | 161 | 3.0 | 5.0 | 0.00 | 0.59 | 0.59 | 74 | 1024.8 |
| 20260901020347 | 77 | 200 | 1.0 | 4.0 | 0.00 | 0.59 | 0.59 | 65 | 1024.7 |
| 20260901015337 | 77 | 199 | 4.0 | 6.0 | 0.00 | 0.59 | 0.59 | 65 | 1024.2 |
| 20260901014328 | 77 | 151 | 2.0 | 6.0 | 0.00 | 0.59 | 0.59 | 68 | 1024.1 |
| 20260901013348 | 77 | 212 | 0.0 | 2.0 | 0.00 | 0.59 | 0.59 | 70 | 1023.9 |
| 20260901012341 | 77 | 212 | 2.0 | 4.0 | 0.00 | 0.59 | 0.59 | 69 | 1023.9 |
| 20260901011333 | 78 | 217 | 2.0 | 3.0 | 0.00 | 0.59 | 0.59 | 67 | 1023.9 |
| 20260901010343 | 78 | 217 | 0.0 | 2.0 | 0.00 | 0.59 | 0.59 | 67 | 1023.7 |
| 20260901005348 | 79 | 217 | 0.0 | 0.0 | 0.00 | 0.59 | 0.59 | 66 | 1023.7 |
| 20260901004403 | 79 | 251 | 0.0 | 3.0 | 0.00 | 0.59 | 0.59 | 67 | 1023.8 |
| 20260901003336 | 79 | 251 | 2.0 | 3.0 | 0.00 | 0.59 | 0.59 | 66 | 1023.7 |
| 20260901002356 | 79 | 333 | 0.0 | 3.0 | 0.00 | 0.59 | 0.59 | 66 | 1023.6 |
| 20260901001326 | 79 | 333 | 2.0 | 6.0 | 0.00 | 0.59 | 0.59 | 65 | 1023.5 |
| 20260901000400 | 79 | 294 | 3.0 | 7.0 | 0.00 | 0.59 | 0.59 | 65 | 1023.7 |
| 20260831235329 | 79 | 244 | 1.0 | 8.0 | 0.00 | 0.59 | 0.59 | 67 | 1023.8 |
| 20260831234407 | 79 | 234 | 4.0 | 7.0 | 0.00 | 0.59 | 0.59 | 66 | 1023.9 |
| 20260831233336 | 80 | 204 | 4.0 | 7.0 | 0.00 | 0.59 | 0.59 | 60 | 1023.9 |
| 20260831232349 | 80 | 16 | 2.0 | 3.0 | 0.00 | 0.59 | 0.59 | 58 | 1023.8 |
| 20260831231338 | 78 | 16 | 2.0 | 5.0 | 0.00 | 0.59 | 0.59 | 61 | 1023.9 |
| 20260831230343 | 76 | 49 | 2.0 | 4.0 | 0.00 | 0.59 | 0.59 | 70 | 1024.2 |
| 20260831225357 | 74 | 42 | 2.0 | 9.0 | 0.00 | 0.59 | 0.59 | 74 | 1024.4 |
| 20260831224353 | 73 | 24 | 5.0 | 11.0 | 0.00 | 0.59 | 0.59 | 75 | 1024.6 |
| 20260831223326 | 72 | 25 | 6.0 | 12.0 | 0.00 | 0.59 | 0.59 | 78 | 1024.6 |
| 20260831222342 | 73 | 11 | 10.0 | 14.0 | 0.00 | 0.59 | 0.59 | 83 | 1024.7 |
| 20260831221336 | 72 | 189 | 7.0 | 11.0 | 0.00 | 0.59 | 0.59 | 85 | 1024.9 |
| 20260831220330 | 72 | 188 | 8.0 | 12.0 | 0.00 | 0.59 | 0.59 | 86 | 1025.3 |
| 20260831215343 | 71 | 150 | 3.0 | 10.0 | 0.00 | 0.59 | 0.59 | 83 | 1025.6 |
| 20260831214334 | 70 | 67 | 5.0 | 14.0 | 0.01 | 0.59 | 0.59 | 84 | 1026.0 |
| 20260831213327 | 70 | 5 | 6.0 | 15.0 | 0.02 | 0.59 | 0.59 | 85 | 1026.1 |
| 20260831212342 | 70 | 36 | 9.0 | 15.0 | 0.04 | 0.59 | 0.59 | 86 | 1025.8 |
| 20260831211336 | 69 | 13 | 9.0 | 20.0 | 0.06 | 0.59 | 0.59 | 88 | 1025.8 |
| 20260831210325 | 69 | 12 | 9.0 | 14.0 | 0.09 | 0.59 | 0.59 | 90 | 1026.0 |
| 20260831205401 | 69 | 63 | 9.0 | 14.0 | 0.11 | 0.59 | 0.59 | 91 | 1027.0 |
| 20260831204332 | 69 | 59 | 10.0 | 16.0 | 0.13 | 0.58 | 0.58 | 94 | 1027.4 |
| 20260831203411 | 69 | 32 | 8.0 | 14.0 | 0.12 | 0.57 | 0.57 | 94 | 1027.9 |
| 20260831202335 | 69 | 63 | 8.0 | 13.0 | 0.10 | 0.55 | 0.55 | 92 | 1028.3 |
| 20260831201329 | 69 | 53 | 4.0 | 6.0 | 0.08 | 0.53 | 0.53 | 90 | 1028.9 |
| 20260831200335 | 69 | 340 | 2.0 | 4.0 | 0.06 | 0.50 | 0.50 | 90 | 1029.3 |
| 20260831195327 | 69 | 340 | 1.0 | 5.0 | 0.04 | 0.48 | 0.48 | 89 | 1029.3 |
| 20260831194346 | 69 | 24 | 3.0 | 4.0 | 0.01 | 0.45 | 0.45 | 88 | 1029.3 |
| 20260831193343 | 69 | 323 | 0.0 | 3.0 | 0.01 | 0.45 | 0.45 | 88 | 1029.7 |
| 20260831192334 | 68 | 323 | 2.0 | 4.0 | 0.01 | 0.45 | 0.45 | 87 | 1029.8 |
| 20260831191324 | 68 | 64 | 2.0 | 6.0 | 0.01 | 0.45 | 0.45 | 86 | 1029.9 |
| 20260831190334 | 69 | 5 | 6.0 | 11.0 | 0.00 | 0.44 | 0.44 | 84 | 1029.6 |
| 20260831185324 | 70 | 327 | 8.0 | 13.0 | 0.00 | 0.44 | 0.44 | 81 | 1029.5 |
| 20260831184343 | 71 | 88 | 4.0 | 9.0 | 0.00 | 0.44 | 0.44 | 81 | 1029.2 |
| 20260831183402 | 70 | 13 | 3.0 | 13.0 | 0.00 | 0.44 | 0.44 | 81 | 1028.8 |
| 20260831182338 | 71 | 277 | 7.0 | 19.0 | 0.00 | 0.44 | 0.44 | 80 | 1029.1 |
| 20260831181329 | 73 | 240 | 7.0 | 14.0 | 0.00 | 0.44 | 0.44 | 73 | 1029.1 |
| 20260831180336 | 73 | 272 | 5.0 | 14.0 | 0.00 | 0.44 | 0.44 | 72 | 1028.5 |
| 20260831175327 | 73 | 253 | 8.0 | 21.0 | 0.00 | 0.44 | 0.44 | 74 | 1028.6 |
| 20260831174346 | 75 | 255 | 13.0 | 21.0 | 0.00 | 0.44 | 0.44 | 71 | 1028.5 |
| 20260831173337 | 76 | 300 | 11.0 | 22.0 | 0.00 | 0.44 | 0.44 | 66 | 1028.1 |
| 20260831172330 | 76 | 308 | 14.0 | 24.0 | 0.00 | 0.44 | 0.44 | 65 | 1027.8 |
| 20260831171344 | 76 | 286 | 10.0 | 19.0 | 0.00 | 0.44 | 0.44 | 71 | 1027.7 |
| 20260831170330 | 76 | 284 | 15.0 | 24.0 | 0.00 | 0.44 | 0.44 | 71 | 1027.5 |
| 20260831165344 | 79 | 336 | 15.0 | 25.0 | 0.00 | 0.44 | 0.44 | 62 | 1027.0 |
| 20260831164336 | 81 | 32 | 9.0 | 18.0 | 0.00 | 0.44 | 0.44 | 50 | 1026.9 |
| 20260831163350 | 81 | 40 | 14.0 | 24.0 | 0.00 | 0.44 | 0.44 | 47 | 1026.6 |
| 20260831162338 | 81 | 65 | 11.0 | 23.0 | 0.00 | 0.44 | 0.44 | 46 | 1026.3 |
| 20260831161354 | 80 | 90 | 14.0 | 24.0 | 0.00 | 0.44 | 0.44 | 49 | 1026.1 |
| 20260831160339 | 80 | 62 | 13.0 | 23.0 | 0.00 | 0.44 | 0.44 | 48 | 1026.2 |
| 20260831155355 | 79 | 15 | 13.0 | 23.0 | 0.00 | 0.44 | 0.44 | 49 | 1026.1 |
| 20260831154325 | 77 | 61 | 3.0 | 11.0 | 0.00 | 0.44 | 0.44 | 70 | 1026.3 |
| 20260831153401 | 76 | 247 | 1.0 | 8.0 | 0.00 | 0.44 | 0.44 | 74 | 1026.4 |
| 20260831152327 | 75 | 281 | 2.0 | 10.0 | 0.00 | 0.44 | 0.44 | 77 | 1026.6 |
| 20260831151405 | 74 | 180 | 8.0 | 15.0 | 0.00 | 0.44 | 0.44 | 80 | 1026.5 |
| 20260831150351 | 72 | 200 | 8.0 | 13.0 | 0.00 | 0.44 | 0.44 | 88 | 1026.4 |
| 20260831145339 | 71 | 240 | 12.0 | 14.0 | 0.00 | 0.44 | 0.44 | 90 | 1026.4 |
| 20260831144331 | 70 | 182 | 10.0 | 16.0 | 0.00 | 0.44 | 0.44 | 93 | 1026.1 |
| 20260831143348 | 70 | 188 | 10.0 | 18.0 | 0.00 | 0.44 | 0.44 | 93 | 1025.9 |
| 20260831142337 | 70 | 223 | 9.0 | 13.0 | 0.00 | 0.44 | 0.44 | 93 | 1025.8 |
| 20260831141327 | 71 | 225 | 6.0 | 9.0 | 0.00 | 0.44 | 0.44 | 92 | 1025.8 |
| 20260831140335 | 70 | 232 | 4.0 | 5.0 | 0.00 | 0.44 | 0.44 | 91 | 1025.8 |
| 20260831135340 | 71 | 163 | 2.0 | 5.0 | 0.00 | 0.44 | 0.44 | 90 | 1025.8 |
| 20260831134330 | 70 | 69 | 1.0 | 2.0 | 0.00 | 0.44 | 0.44 | 91 | 1025.9 |
| 20260831133347 | 69 | 69 | 0.0 | 2.0 | 0.00 | 0.44 | 0.44 | 92 | 1025.9 |
| 20260831132337 | 69 | 69 | 0.0 | 2.0 | 0.05 | 0.44 | 0.44 | 93 | 1026.0 |
| 20260831131329 | 69 | 69 | 3.0 | 7.0 | 0.07 | 0.44 | 0.44 | 93 | 1026.0 |
| 20260831130337 | 68 | 76 | 3.0 | 7.0 | 0.33 | 0.44 | 0.44 | 94 | 1026.2 |
| 20260831125330 | 68 | 330 | 2.0 | 11.0 | 0.43 | 0.44 | 0.44 | 94 | 1026.4 |
| 20260831124324 | 68 | 65 | 3.0 | 8.0 | 0.44 | 0.44 | 0.44 | 94 | 1026.7 |
| 20260831123343 | 68 | 20 | 4.0 | 9.0 | 0.44 | 0.44 | 0.44 | 93 | 1026.6 |
| 20260831122333 | 69 | 355 | 5.0 | 10.0 | 0.39 | 0.39 | 0.39 | 93 | 1026.6 |
| 20260831121329 | 69 | 355 | 1.0 | 5.0 | 0.37 | 0.37 | 0.37 | 91 | 1026.6 |
| 20260831120359 | 69 | 133 | 2.0 | 5.0 | 0.09 | 0.09 | 0.09 | 90 | 1026.8 |
| 20260831115330 | 70 | 280 | 6.0 | 15.0 | 0.01 | 0.01 | 0.01 | 88 | 1026.2 |
| 20260831114347 | 72 | 248 | 10.0 | 27.0 | 0.00 | 0.00 | 0.00 | 82 | 1025.7 |
| 20260831113336 | 74 | 266 | 13.0 | 24.0 | 0.00 | 0.00 | 0.00 | 73 | 1025.4 |
| 20260831112350 | 76 | 234 | 25.0 | 39.0 | 0.00 | 0.00 | 0.00 | 64 | 1025.0 |
| 20260831111342 | 81 | 232 | 4.0 | 6.0 | 0.00 | 0.00 | 0.00 | 50 | 1024.3 |
| 20260831110351 | 81 | 115 | 1.0 | 8.0 | 0.00 | 0.00 | 0.00 | 50 | 1024.1 |
| 20260831105341 | 81 | 123 | 4.0 | 7.0 | 0.00 | 0.00 | 0.00 | 51 | 1023.9 |
| 20260831104335 | 80 | 112 | 6.0 | 9.0 | 0.00 | 0.00 | 0.00 | 52 | 1023.5 |
| 20260831103324 | 81 | 89 | 8.0 | 13.0 | 0.00 | 0.00 | 0.00 | 49 | 1023.3 |
| 20260831102342 | 82 | 140 | 5.0 | 9.0 | 0.00 | 0.00 | 0.00 | 48 | 1023.4 |
| 20260831101334 | 82 | 131 | 6.0 | 14.0 | 0.00 | 0.00 | 0.00 | 47 | 1023.4 |
| 20260831100344 | 81 | 128 | 8.0 | 15.0 | 0.00 | 0.00 | 0.00 | 47 | 1023.0 |
| 20260831095335 | 81 | 120 | 10.0 | 20.0 | 0.00 | 0.00 | 0.00 | 47 | 1023.1 |
| 20260831094332 | 82 | 157 | 10.0 | 17.0 | 0.00 | 0.00 | 0.00 | 46 | 1023.1 |
| 20260831093349 | 82 | 157 | 7.0 | 11.0 | 0.00 | 0.00 | 0.00 | 49 | 1023.0 |
| 20260831092340 | 82 | 184 | 8.0 | 10.0 | 0.00 | 0.00 | 0.00 | 49 | 1023.1 |
| 20260831091332 | 82 | 174 | 6.0 | 8.0 | 0.00 | 0.00 | 0.00 | 49 | 1023.1 |
| 20260831090340 | 81 | 167 | 4.0 | 8.0 | 0.00 | 0.00 | 0.00 | 51 | 1023.4 |
| 20260831085357 | 82 | 177 | 3.0 | 4.0 | 0.00 | 0.00 | 0.00 | 50 | 1023.3 |
| 20260831084356 | 82 | 177 | 2.0 | 3.0 | 0.00 | 0.00 | 0.00 | 50 | 1023.3 |
| 20260831083331 | 82 | 177 | 2.0 | 4.0 | 0.00 | 0.00 | 0.00 | 50 | 1023.4 |
| 20260831082324 | 82 | 177 | 2.0 | 3.0 | 0.00 | 0.00 | 0.00 | 49 | 1023.6 |